Date,TemperatureHighF,TemperatureAvgF,TemperatureLowF,DewpointHighF,DewpointAvgF,DewpointLowF,HumidityHigh,HumidityAvg,HumidityLow,PressureMaxIn,PressureMinIn,WindSpeedMaxMPH,WindSpeedAvgMPH,GustSpeedMaxMPH,PrecipitationSumIn
2013-1-1,28.5,28.2,28.0,26.3,25.9,25.7,91,91,91,30.21,30.18,0,0,0,0.00
2013-1-2,34.8,31.3,26.6,31.6,28.4,24.3,91,89,87,30.38,30.05,7,0,13,0.00
2013-1-3,41.7,39.8,37.9,34.1,33.4,32.0,84,78,72,30.37,30.32,6,1,9,0.00
2013-1-4,49.2,45.8,42.4,39.5,37.3,35.6,82,73,63,30.17,30.09,22,6,29,0.00
2013-1-5,49.1,44.6,38.3,40.2,32.9,24.7,74,64,55,30.14,29.92,22,8,26,0.00
2013-1-6,37.2,34.4,32.1,33.7,27.0,24.0,89,75,60,30.12,29.90,12,3,13,0.02
2013-1-7,36.3,32.1,24.0,28.1,25.7,19.4,85,78,62,30.31,30.12,4,0,4,0.00
2013-1-8,32.1,27.3,17.2,23.6,20.7,12.5,88,77,63,30.31,30.20,6,0,6,0.00
2013-1-9,28.5,27.5,25.1,25.7,24.8,22.3,90,89,89,30.19,30.10,6,0,6,0.00
2013-1-10,32.7,28.8,27.5,30.3,26.3,24.9,91,90,90,29.80,29.71,3,0,3,0.00
2013-1-11,38.3,32.3,29.3,32.7,25.4,22.1,83,75,72,29.88,29.68,19,7,20,0.02
2013-1-12,33.0,29.2,26.0,23.8,22.4,20.3,85,76,63,30.09,29.92,11,1,12,0.00
2013-1-13,29.4,28.2,26.2,25.2,24.3,22.5,88,85,83,30.09,30.01,9,2,11,0.00
2013-1-14,33.6,30.6,26.7,30.7,28.1,24.2,91,90,89,29.98,29.83,6,1,9,0.23
2013-1-15,35.7,34.7,34.1,33.3,32.2,31.7,91,91,91,29.82,29.73,2,0,4,0.12
2013-1-16,42.2,33.8,28.5,37.2,30.5,25.7,91,88,80,29.57,29.51,6,0,7,0.00
2013-1-17,35.2,33.4,32.9,32.3,30.9,30.4,91,91,90,29.69,29.53,0,0,2,0.06
2013-1-18,34.3,32.1,28.5,31.1,29.0,25.1,90,88,87,29.52,29.45,11,1,11,0.00
2013-1-19,30.0,27.0,25.3,23.4,22.2,20.2,86,82,76,29.63,29.46,6,1,10,0.02
2013-1-20,33.8,31.6,28.2,31.3,29.1,25.4,91,90,89,29.56,29.47,4,0,5,0.00
2013-1-21,39.0,37.6,34.8,36.6,35.1,32.4,92,91,91,29.46,29.37,9,0,10,0.12
2013-1-22,32.7,30.9,28.2,30.2,27.6,24.2,91,87,85,29.60,29.37,8,1,12,0.02
2013-1-23,33.2,30.4,27.3,28.3,26.4,23.0,88,85,81,29.82,29.67,9,1,10,0.02
2013-1-24,35.7,32.2,29.8,33.0,28.5,24.5,91,86,75,29.79,29.67,15,1,16,0.01
2013-1-25,32.9,29.4,26.6,23.4,20.6,18.1,72,69,67,29.98,29.77,11,3,14,0.00
2013-1-26,33.2,29.7,26.7,23.6,21.5,18.3,80,72,66,30.05,29.88,5,0,5,0.00
2013-1-27,29.8,28.3,25.7,23.4,22.1,20.9,87,77,72,29.97,29.91,3,0,4,0.00
2013-1-28,32.5,30.7,28.7,29.6,28.0,25.9,90,89,88,30.05,29.84,2,0,2,0.00
2013-1-29,36.1,32.5,24.4,33.4,29.5,21.9,90,89,86,30.07,29.97,4,0,5,0.19
2013-1-30,47.4,43.7,38.8,44.1,41.0,36.1,91,90,87,29.94,29.80,8,1,8,0.12
2013-1-31,48.7,44.0,37.2,35.9,32.5,29.1,74,64,53,29.96,29.83,28,6,33,0.00